Location: Alsip
(41.6689°N, 87.7387°W)
Time: 14:16:51
(UTC+00:00)

Cosmos 1805 Rocket - Pass Details

Date: 14 July 2020
Orbit: 607 x 629 km, 82.5° (Epoch: 04 August)

Event Time Altitude Azimuth Distance (km) Brightness Sun altitude
Exits shadow 05:30:58 57° 30° (NNE) 719 4.0 -26.4°
Drops below altitude 10° 05:34:32 10° 11° (N) 1,977 7.1 -26.5°
Sets 05:36:47 0° 10° (N) 2,890 8.2 -26.6°
